This demonstration page uses our WeatherBlox Daily Observations layout. Learn more.

Left ArrowRight Arrow

41.86663, -103.66717

Hourly Observations for August 13, 2022

Temp ( °F °C ) Dew Point ( °F °C ) Humidity (%) Winds ( mph kmh ) Pressure ( in mb ) Visibility ( mi km ) Precip ( " mm )
12:04 am 00:04 Cloudy 76 24.4 59 15 56 56 NNE 10 17 29.91 1013 10 16 0.01 0.13
12:29 am 00:29 Cloudy with Thunderstorms 74 23.3 60 15.6 62 62 NW 24 39 29.99 1015 10 16 0.01 0.13
12:53 am 00:53 Windy with Storms Likely 67 19.4 62 16.7 84 84 NNW 25 41 30.06 1018 10 16 0.01 0.13
1:06 am 01:06 Cloudy with Nearby Thunderstorms 67 19.4 62 16.7 84 84 NNW 21 33 30.04 1017 10 16 0.01 0.13
1:25 am 01:25 Mostly Cloudy 68 20 62 16.7 81 81 NNW 16 26 30.02 1017 10 16 0.01 0.13
1:53 am 01:53 Cloudy 69 20.6 62 16.7 78 78 NW 15 24 30.05 1018 10 16 0.01 0.13
2:53 am 02:53 Mostly Clear 69 20.6 60 15.6 73 73 NNW 16 26 30.06 1018 10 16 0.00 0.00
3:53 am 03:53 Clear 68 20 60 15.6 76 76 NNW 7 11 30.06 1018 10 16 0.00 0.00
4:53 am 04:53 Clear 69 20.6 59 15 70 70 W 8 13 30.04 1017 10 16 0.00 0.00
5:53 am 05:53 Mostly Clear 67 19.4 62 16.7 84 84 Calm 30.03 1017 10 16 0.00 0.00
6:53 am 06:53 Partly Cloudy 68 20 61 16.1 78 78 undefined N/A 29.97 1015 10 16 0.00 0.00
7:53 am 07:53 Sunny 71 21.7 61 16.1 70 70 WNW 9 15 30.01 1016 10 16 0.00 0.00
8:53 am 08:53 Partly Cloudy 73 22.8 61 16.1 66 66 NW 13 20 30.05 1018 10 16 0.00 0.00
9:53 am 09:53 Sunny 76 24.4 62 16.7 62 62 NW 10 17 30.05 1018 10 16 0.00 0.00
10:53 am 10:53 Sunny 80 26.7 61 16.1 52 52 VRB 6 9 30.04 1017 10 16 0.00 0.00
11:53 am 11:53 Sunny 80 26.7 60 15.6 51 51 Calm 30.04 1017 10 16 0.00 0.00
12:53 pm 12:53 Sunny 85 29.4 59 15 42 42 VRB 7 11 30.02 1017 10 16 0.00 0.00
1:53 pm 13:53 Sunny 89 31.7 57 13.9 34 34 E 12 19 29.98 1015 10 16 0.00 0.00
2:53 pm 14:53 Sunny 92 33.3 58 14.4 32 32 E 15 24 29.94 1014 10 16 0.00 0.00
3:53 pm 15:53 Sunny 93 33.9 56 13.3 29 29 E 14 22 29.92 1013 10 16 0.00 0.00
4:53 pm 16:53 Sunny 94 34.4 58 14.4 30 30 E 12 19 29.89 1012 10 16 0.00 0.00
5:53 pm 17:53 Sunny 92 33.3 57 13.9 31 31 E 9 15 29.88 1012 10 16 0.00 0.00
6:53 pm 18:53 Sunny 86 30 61 16.1 43 43 ENE 7 11 29.89 1012 10 16 0.00 0.00
7:53 pm 19:53 Mostly Sunny 83 28.3 59 15 44 44 ENE 10 17 29.88 1012 10 16 0.00 0.00
8:53 pm 20:53 Mostly Clear with Nearby Thunderstorms 83 28.3 56 13.3 40 40 E 15 24 29.91 1013 10 16 0.00 0.00
9:53 pm 21:53 Mostly Cloudy 76 24.4 60 15.6 58 58 NE 13 20 29.98 1015 10 16 0.00 0.00
10:53 pm 22:53 Partly Cloudy 73 22.8 63 17.2 71 71 ENE 6 9 29.95 1014 10 16 0.01 0.13
11:53 pm 23:53 Mostly Cloudy 75 23.9 62 16.7 64 64 NE 6 9 29.96 1015 10 16 0.00 0.00

Powered by AerisWeather